Location: Agnac
(44.5749°N, 2.2721°E)
Time: 22:43:42
(UTC+00:00)

Daily predictions for brighter satellites

Satellite Brightness Start Highest point End
(mag) Time Altitude Azimuth Time Altitude Azimuth Time Altitude Azimuth
CZ-4C R/B 1.6 17:38:07 10° SSW 17:42:10 84° SE 17:47:20 10° NE
NOSS 3-3 (C) 3.8 17:37:39 10° SSW 17:42:38 60° ESE 17:48:31 10° NE
SL-16 R/B 3.9 17:37:57 10° N 17:43:42 41° WNW 17:49:26 10° SW
BREEZE-M DEB (TANK) 3.3 17:40:39 10° WNW 17:44:53 60° NNE 17:51:29 10° ESE
MOS 1 Rocket 4.4 17:40:35 10° S 17:44:58 48° W 17:49:11 10° NNW
YAOGAN 1 3.0 17:41:39 10° SE 17:45:36 39° ENE 17:49:34 10° N
Cosmos 158 Rocket 3.9 17:40:57 10° SSW 17:45:48 87° WNW 17:50:42 10° NNE
SeaSat 1 2.4 17:42:57 10° SE 17:47:49 75° ENE 17:52:44 10° NNW
SAR-Lupe-4 3.6 17:47:03 10° SSE 17:50:33 57° ENE 17:54:04 10° N
Spot 4 Rocket 4.4 17:49:18 10° SE 17:54:06 42° ENE 17:58:54 10° N
PSLV R/B 4.2 17:52:36 10° SE 17:56:14 31° ENE 17:59:53 10° N
COSMO-SKYMED 1 2.9 17:53:41 10° NNE 17:57:34 39° E 18:01:25 10° SSE
CZ-2D R/B 3.6 17:54:36 10° S 17:57:35 52° W 18:00:35 10° NNW
Atlas Centaur 2 4.3 17:51:21 10° SW 17:57:35 26° S 18:03:13 10° SE
Okean 1 Rocket 3.2 17:54:01 10° N 17:58:18 50° ENE 18:02:32 10° SSE
USA 234 3.5 17:51:46 10° SE 17:58:18 76° SW 18:04:54 10° NW
Cosmos 2221 Rocket 3.8 17:54:08 10° SSE 17:58:25 49° E 18:02:46 10° NNE
Meteor 1-11 4.3 17:53:40 10° S 17:59:16 89° E 18:05:01 10° N
ARIANE 5 R/B 3.2 17:54:33 10° S 17:59:37 61° WSW 18:04:39 10° NNW
Okean 2 Rocket 3.0 17:56:18 10° N 18:00:40 62° E 18:04:59 10° SSE
Cosmos 1378 Rocket 4.2 18:01:32 10° SSW 18:05:46 57° W 18:10:01 10° N
BREEZE-M (TANK) 2.5 18:04:08 10° WNW 18:06:32 56° NNE 18:12:02 11° ESE
Radarsat Rocket 4.0 18:01:31 10° SE 18:07:13 58° ENE 18:13:20 10° N
CZ-2D R/B 3.3 18:05:34 10° SSE 18:09:23 59° ENE 18:13:19 10° N
NOSS 3-3 (A) 3.8 18:05:09 10° SW 18:10:15 76° NW 18:16:22 10° NE
BREEZE-M DEB (TANK) 3.9 18:09:03 10° WNW 18:12:40 52° SSW 18:17:27 10° SE
Sich 1 Rocket 3.6 18:09:19 10° N 18:13:53 70° E 18:18:24 10° SSE
Cosmos 2297 Rocket 2.2 18:10:24 10° S 18:15:56 61° ESE 18:21:32 10° NNE
Tiangong -0.5 18:14:33 10° SW 18:17:10 24° SSE 18:18:49 16° ESE
GP-B 4.3 18:13:32 10° SSW 18:17:43 45° W 18:21:56 10° NNW
Meteor 2-1 Rocket 4.3 18:12:34 10° N 18:18:25 87° ENE 18:24:20 10° S
Cosmos 1025 Rocket 3.2 18:14:13 10° SSW 18:18:30 78° W 18:22:51 10° N
SKYMED 2 4.0 18:16:15 10° N 18:20:34 66° WNW 18:24:52 10° SSW
Resurs 01 Rocket 1.9 18:17:32 10° SE 18:21:42 44° ENE 18:25:53 10° N
Cosmos 1356 Rocket 4.2 18:19:02 10° NNW 18:22:52 52° W 18:26:44 10° S
Cosmos 2346 Rocket 4.5 18:17:09 10° S 18:23:25 83° E 18:29:42 10° N
Resurs 1-3 3.8 18:20:15 10° S 18:24:33 75° WSW 18:28:51 10° NNW
Cosmos 2344 4.2 18:21:19 10° S 18:28:17 31° ESE 18:32:55 16° ENE
NOSS 3-4 (A) 4.0 18:24:21 10° NNW 18:30:54 53° NE 18:37:51 13° ESE
NOSS 3-4 (C) 4.0 18:24:37 10° NNW 18:31:11 52° NE 18:38:02 13° ESE
Cosmos 1782 4.4 18:30:24 10° NNE 18:31:36 16° NE 18:31:36 16° NE
CRYOSAT 2 4.3 18:32:14 10° NNE 18:37:05 59° E 18:41:53 10° S
Helios 1A Rocket 3.3 18:39:28 29° ESE 18:39:28 29° ESE 18:41:46 10° SSE
Lacrosse 5 rocket 3.4 18:40:56 10° NW 18:42:59 15° NNW 18:44:56 10° NNE
Cosmos 2263 Rocket 3.0 18:41:30 10° SSE 18:46:11 27° ESE 18:46:41 27° E
Cosmos 1980 3.7 18:40:53 10° NNW 18:46:34 90° WSW 18:52:13 10° SSE
COSMOS 2428 4.1 18:42:03 10° NW 18:47:24 41° WSW 18:52:42 10° S
Meteor 1-27 4.2 18:41:44 10° N 18:47:33 77° E 18:53:22 10° SSE
SJ-6B 2.4 18:46:43 21° SSE 18:48:49 56° ENE 18:52:13 10° N
Cosmos 2237 Rocket 2.2 18:46:15 10° NNW 18:51:58 88° WSW 18:57:40 10° SSE
CARTOSAT-1 3.9 18:49:14 10° S 18:53:23 63° WSW 18:57:34 10° NNW
Cosmos 2285 Rocket 4.4 18:50:05 10° NNW 18:56:28 69° WSW 19:02:47 10° S
Cosmos 44 Rocket 3.2 18:54:19 10° SSW 18:59:13 82° ESE 19:02:16 24° NE
Cosmos 1816 Rocket 4.4 18:57:40 10° S 19:03:40 60° E 19:09:45 10° NNE
USA 267 4.4 18:59:48 15° NE 19:04:29 35° NNW 19:10:17 10° WNW
BREEZE-M DEB (TANK) 4.2 19:05:17 10° WNW 19:09:24 88° SSW 19:16:43 24° ESE
Aureole 3 Rocket 4.4 19:06:30 10° NNW 19:09:55 31° W 19:12:46 10° SSW
Cosmos 2034 Rocket 4.0 19:03:55 10° N 19:09:57 52° ENE 19:13:44 23° SE
Cosmos 1072 Rocket 4.4 19:05:04 10° N 19:11:21 86° E 19:17:29 10° S
Cosmos 2227 Rocket 2.0 19:09:28 10° SSW 19:15:06 78° ESE 19:18:49 22° NNE
SL-16 R/B 2.5 19:11:41 10° NNW 19:17:06 45° ENE 19:17:18 44° ENE
Cosmos 1975 Rocket 3.2 19:16:33 10° SSW 19:20:53 70° W 19:25:12 10° N
Cosmos 1455 Rocket 4.3 19:17:37 10° NNW 19:21:39 41° W 19:25:41 10° SSW
ARIANE 6 FM1 Upper Stage 4.4 19:18:58 10° NNW 19:20:45 20° N 19:20:45 20° N
CZ-4 R/B 3.9 19:33:01 11° N 19:33:01 11° N 19:33:11 10° N
CZ-4C R/B 4.0 19:27:42 10° WNW 19:31:15 21° NNW 19:35:03 11° NNE
DNEPR-1 R/B 3.9 19:28:22 10° NW 19:33:22 85° NE 19:34:10 66° SE
Cosmos 2228 3.6 19:30:33 10° NNW 19:34:37 53° W 19:37:09 21° SSW
Gbstr 26 Del rocket 4.3 19:29:48 10° SW 19:36:32 61° SE 19:37:45 54° E
CZ-4B R/B 4.3 19:40:18 30° NNE 19:40:18 30° NNE 19:43:08 10° N
Cosmos 1464 Rocket 4.3 19:32:05 10° NNW 19:38:24 66° W 19:44:35 10° S
Cosmos 783 Rocket 4.3 19:33:11 10° SSW 19:38:27 83° ESE 19:38:28 83° ESE
SPOT 5 2.8 19:39:23 84° N 19:39:23 84° N 19:44:18 10° NNW
CZ-4B DEB 4.2 19:43:20 68° NNE 19:43:20 68° NNE 19:48:17 10° N
Atlas Centaur 2 4.1 19:39:51 10° WSW 19:45:17 22° SSW 19:46:52 20° S
CSL-04 Debris 4.1 19:49:11 69° S 19:49:49 81° WSW 19:55:17 10° NNW
Tiangong 1.1 19:50:41 10° WSW 19:51:08 13° WSW 19:51:08 13° WSW
CSL-04 Rocket 3.8 19:53:07 59° SSW 19:53:56 69° WSW 19:59:13 10° NNW
Resurs 01 Rocket 4.3 19:55:10 10° SW 19:58:16 19° W 20:01:23 10° NW
Cosmos 2297 Rocket 4.2 19:55:51 10° WSW 20:00:24 24° NW 20:04:59 10° N
BREEZE-M DEB (TANK) 4.3 19:53:10 10° WSW 20:07:59 89° NW 20:07:59 89° NW
Terra 4.5 20:30:15 12° NNW 20:30:15 12° NNW 20:30:35 10° NNW
Cosmos 2263 Rocket 3.3 20:24:18 10° SW 20:28:28 41° W 20:28:28 41° W
Cosmos 2344 3.9 20:34:37 10° WSW 20:42:13 55° NW 20:43:00 53° NNW
Cosmos 2227 Rocket 4.4 20:55:40 10° W 20:59:47 20° NW 21:00:43 20° NNW
SL-16 R/B 4.2 20:56:10 10° NW 20:59:12 25° WNW 20:59:12 25° WNW
